Wetbulb
63.92 65.55 66.02 67.31 69.20 70.86 71.74 72.08 72.26 72.51 72.22 73.08 72.76 72.86 72.70 72.44 72.04 72.29 70.84 70.50 70.92 71.37 70.11 71.19 70.26 71.84 69.06 70.68 69.70 69.26 67.90 67.07
62.86 64.68 66.29 66.98 68.81 70.15 71.48 71.74 72.20 72.31 72.55 72.29 72.01 72.00 72.14 72.00 72.47 72.52 70.73 69.69 69.01 69.19 68.69 68.11 67.80 67.66 67.10 66.42 66.48 66.87 66.72 66.97
61.04 65.44 67.07 67.70 68.32 69.45 71.39 71.65 71.75 71.51 71.18 72.30 71.95 71.80 71.92 71.82 71.79 71.72 71.37 69.82 68.81 68.61 67.77 66.65 66.30 66.14 66.00 65.63 65.33 65.72 65.69 65.91
57.25 62.10 64.38 67.48 68.31 68.85 71.16 71.14 71.40 71.79 71.49 71.65 71.46 71.63 71.73 71.44 71.67 71.43 71.09 70.10 68.54 67.77 67.15 66.38 65.49 65.54 65.42 65.33 65.22 65.20 65.24 65.55
53.20 60.76 63.66 65.60 68.14 68.95 70.14 70.73 71.05 71.17 71.59 71.20 71.03 71.33 71.69 71.35 71.49 71.70 71.32 70.15 68.40 67.76 67.12 66.18 65.58 65.49 65.67 65.54 65.75 65.61 65.32 65.44
53.14 53.93 60.75 63.09 65.74 67.84 69.37 70.83 70.78 70.65 71.16 71.19 71.11 71.42 71.74 71.55 71.68 71.37 71.46 70.72 69.23 67.00 66.15 66.22 66.75 65.87 65.89 65.80 65.75 66.05 66.35 66.37
52.35 53.28 53.35 55.26 62.71 67.01 67.97 69.25 69.72 70.26 70.75 70.65 70.63 70.59 70.81 70.60 70.04 70.30 70.78 70.69 69.91 68.08 67.35 66.18 66.44 66.82 67.00 66.86 67.08 67.37 66.70 66.57
50.40 52.33 52.44 52.08 56.91 63.02 67.18 68.59 68.65 69.20 69.69 69.31 67.97 68.15 69.28 70.19 69.74 69.55 69.71 70.28 70.23 68.24 67.62 66.77 66.90 66.15 66.46 67.05 67.22 66.64 66.42 66.72
48.80 49.69 51.23 51.39 54.12 60.81 64.47 66.45 67.31 67.85 67.59 67.38 67.03 66.29 67.28 67.64 68.27 68.94 68.89 69.38 69.90 69.17 67.99 66.15 66.32 66.97 67.06 67.15 67.15 66.53 65.64 66.73
46.98 50.87 52.93 53.88 55.04 59.00 63.50 65.93 66.01 67.23 67.99 68.26 67.73 67.73 66.94 67.91 68.27 68.53 68.80 68.99 69.11 69.14 68.76 67.97 66.87 66.25 66.81 67.36 66.86 65.69 65.29 65.58
45.01 48.52 53.26 54.06 55.82 59.09 63.29 65.96 67.12 67.15 67.63 67.21 66.32 66.48 66.39 66.35 67.05 67.46 68.15 68.87 69.17 69.10 68.90 68.76 68.84 68.37 67.48 67.48 67.25 66.22 64.98 65.03
44.55 45.67 50.83 53.51 54.94 58.23 61.58 63.80 66.19 67.12 67.21 66.85 66.20 65.36 65.17 65.87 67.16 67.95 67.93 68.91 69.38 69.78 69.40 69.47 69.42 69.73 69.17 68.56 68.19 67.28 66.31 64.18
43.80 45.32 47.13 53.53 54.04 54.99 58.22 61.71 63.49 65.47 66.74 66.88 65.30 63.67 63.68 64.33 65.08 66.02 66.76 67.37 68.06 68.44 68.76 68.97 68.54 68.47 68.36 67.89 67.42 66.25 65.98 65.60
43.61 45.37 47.23 51.09 51.91 54.00 55.52 57.70 59.35 61.45 63.73 64.48 65.01 63.86 64.00 63.51 63.72 63.91 65.01 65.79 66.78 67.30 67.74 66.74 68.25 68.58 68.65 68.36 68.56 66.00 65.83 67.21
43.64 43.98 44.40 49.10 50.73 53.35 54.98 55.17 54.96 55.99 58.12 58.72 59.46 60.07 61.04 61.20 61.97 63.69 63.80 64.11 64.65 65.91 66.61 67.05 67.05 67.61 68.29 67.71 67.28 66.54 66.56 65.96
43.15 43.90 43.66 48.07 51.41 53.62 56.06 53.77 52.91 53.75 56.36 57.37 58.22 58.37 58.44 58.79 59.34 60.93 62.61 63.51 64.23 65.45 65.40 65.94 66.47 67.97 68.02 68.13 67.25 67.19 67.32 66.83
43.65 44.20 46.27 47.87 51.00 53.55 55.10 52.28 51.80 52.60 54.15 54.29 54.36 55.12 55.99 56.65 57.64 58.04 57.82 59.06 60.82 62.19 63.06 63.58 64.31 64.87 66.68 67.66 67.05 66.87 67.14 67.10
44.67 44.97 45.34 46.81 46.92 48.35 49.86 50.92 51.93 52.29 52.99 52.69 53.09 53.57 54.44 54.95 54.90 55.60 56.66 57.08 58.21 60.23 61.87 62.66 62.88 63.90 64.45 65.20 65.28 66.00 65.91 66.27
45.13 45.39 45.95 46.00 46.26 47.49 48.33 49.38 50.15 51.33 51.63 51.80 52.28 52.60 53.75 53.61 53.49 53.78 53.99 54.76 56.42 57.60 58.51 59.02 60.55 62.04 63.43 63.83 63.78 63.87 64.10 64.01
45.05 46.42 46.96 47.54 47.00 46.67 48.12 49.21 48.69 49.69 50.47 51.02 51.65 51.31 51.34 52.06 52.50 53.18 53.73 54.34 55.45 56.79 58.23 59.82 60.69 61.52 62.21 62.55 63.04 64.74 64.27 63.87
MSLP
1006.45 1006.68 1006.29 1006.09 1007.16 1007.90 1007.45 1008.24 1009.01 1009.39 1009.54 1009.94 1010.45 1010.70 1011.04 1011.75 1012.12 1012.14 1012.46 1012.70 1012.89 1013.16 1013.47 1013.59 1014.08 1014.41 1014.80 1014.91 1015.16 1015.34 1015.30 1015.28
1005.74 1006.19 1006.40 1006.40 1006.79 1007.30 1007.70 1007.70 1008.54 1009.05 1009.44 1009.66 1009.94 1010.75 1010.95 1011.35 1011.81 1012.16 1012.29 1012.70 1012.96 1013.09 1013.43 1013.87 1014.22 1014.41 1014.68 1014.95 1015.11 1015.31 1015.32 1015.22
1005.26 1005.01 1005.47 1006.18 1006.40 1006.78 1007.06 1007.61 1008.02 1008.39 1009.01 1009.45 1009.79 1010.01 1010.43 1010.93 1011.13 1011.72 1012.21 1012.45 1012.89 1013.14 1013.29 1013.76 1014.20 1014.59 1014.71 1014.81 1014.89 1015.05 1015.12 1015.12
1005.20 1005.30 1005.61 1005.84 1005.97 1006.22 1006.75 1007.09 1007.76 1008.35 1008.46 1008.81 1009.16 1009.51 1009.78 1010.48 1010.89 1011.23 1011.85 1012.09 1012.44 1012.89 1013.72 1013.58 1014.19 1014.34 1014.62 1014.81 1014.86 1014.90 1014.88 1014.85
1004.81 1004.42 1004.82 1005.08 1005.14 1005.89 1006.24 1006.38 1007.24 1007.70 1007.84 1008.06 1008.50 1008.48 1008.85 1009.98 1010.44 1010.95 1011.57 1012.09 1012.36 1012.57 1012.91 1013.39 1013.76 1013.95 1014.42 1015.03 1014.87 1014.88 1014.71 1014.99
1004.33 1004.42 1004.25 1004.68 1004.91 1005.14 1005.44 1006.01 1006.83 1007.30 1007.60 1007.65 1007.96 1007.95 1008.87 1009.42 1010.27 1010.37 1011.05 1011.53 1012.24 1012.56 1012.83 1013.29 1013.69 1013.29 1013.78 1014.72 1015.06 1014.79 1014.69 1014.38
1004.46 1003.97 1003.88 1004.18 1004.22 1004.50 1004.81 1005.31 1005.91 1006.38 1006.95 1007.48 1007.79 1008.30 1008.60 1009.24 1009.75 1010.00 1010.40 1010.94 1011.30 1011.89 1012.61 1012.53 1013.37 1013.31 1013.07 1014.38 1014.72 1014.66 1014.46 1014.22
1003.71 1003.73 1003.70 1003.61 1003.98 1004.26 1004.29 1004.54 1005.06 1006.02 1006.87 1007.57 1007.96 1008.39 1008.64 1008.54 1009.10 1009.43 1009.54 1009.90 1010.37 1011.17 1011.64 1012.43 1012.59 1013.18 1012.99 1013.61 1014.25 1014.07 1014.47 1013.86
1003.26 1003.21 1003.41 1003.75 1003.81 1004.24 1004.15 1004.50 1004.76 1005.31 1006.30 1006.97 1007.54 1007.58 1008.24 1008.37 1008.73 1008.81 1009.59 1009.82 1009.62 1009.96 1010.87 1011.50 1012.42 1012.45 1013.18 1012.76 1013.31 1013.78 1014.36 1013.65
1003.11 1002.82 1003.00 1003.42 1002.97 1003.01 1003.75 1003.87 1004.29 1004.57 1005.05 1005.77 1006.38 1007.15 1007.62 1007.82 1008.36 1008.52 1008.77 1009.21 1009.53 1009.24 1010.12 1010.28 1010.95 1012.00 1012.98 1012.26 1012.23 1013.59 1014.17 1013.40
1003.24 1003.01 1002.83 1002.97 1003.09 1002.94 1002.95 1002.94 1003.44 1003.97 1004.59 1005.61 1006.18 1007.01 1007.66 1008.08 1008.03 1008.37 1008.48 1008.41 1009.03 1009.36 1010.10 1010.19 1010.07 1011.41 1011.35 1012.42 1011.54 1012.09 1013.23 1013.07
1003.17 1002.88 1002.93 1002.71 1002.39 1002.55 1002.68 1002.94 1003.23 1003.62 1004.30 1005.04 1005.64 1006.17 1007.02 1007.36 1007.20 1007.21 1007.34 1007.52 1008.02 1008.59 1009.09 1009.08 1010.07 1011.28 1011.65 1011.83 1011.37 1011.04 1011.63 1012.42
1003.38 1003.06 1002.38 1002.16 1002.60 1002.31 1002.51 1002.73 1003.08 1003.41 1003.81 1004.35 1005.15 1005.96 1006.56 1006.82 1007.33 1007.52 1007.51 1007.63 1007.96 1007.93 1008.25 1009.01 1010.19 1010.72 1011.29 1012.22 1011.74 1010.65 1011.16 1011.31
1003.32 1002.76 1002.28 1001.96 1002.12 1002.53 1002.82 1003.00 1003.16 1003.39 1003.59 1004.04 1004.63 1005.29 1006.11 1006.76 1007.34 1007.46 1007.53 1007.59 1007.85 1007.96 1008.50 1008.88 1009.51 1010.13 1011.30 1011.00 1011.85 1011.16 1010.93 1011.01
1002.94 1002.73 1002.29 1001.83 1001.90 1002.12 1002.73 1003.32 1003.38 1003.35 1003.52 1003.92 1004.38 1004.94 1005.54 1006.17 1006.75 1007.17 1007.42 1007.65 1007.74 1007.70 1007.72 1008.04 1009.14 1009.45 1009.40 1008.81 1009.98 1010.23 1010.52 1010.71
1002.79 1001.86 1001.55 1001.23 1001.19 1001.48 1001.78 1002.63 1003.22 1003.28 1003.65 1003.88 1004.34 1004.76 1005.25 1005.74 1006.09 1006.56 1007.12 1007.36 1007.50 1007.64 1007.78 1007.82 1008.11 1008.64 1008.75 1009.07 1009.20 1009.36 1009.75 1009.78
1002.51 1002.09 1001.13 1000.81 1000.87 1000.86 1001.08 1001.62 1002.56 1003.01 1003.43 1003.77 1004.27 1004.58 1005.06 1005.57 1005.90 1006.27 1006.77 1007.05 1007.27 1007.32 1007.61 1007.63 1007.50 1007.86 1008.19 1008.65 1008.73 1008.99 1009.20 1009.62
1002.41 1002.37 1001.73 1000.81 1001.03 1001.54 1001.45 1001.97 1002.29 1002.58 1003.05 1003.31 1003.66 1004.27 1004.70 1005.26 1005.85 1006.27 1006.51 1006.82 1007.07 1007.10 1007.21 1007.43 1007.59 1007.81 1008.03 1008.15 1008.46 1008.66 1009.10 1009.32
1002.16 1001.85 1001.68 1001.28 1000.81 1001.25 1001.97 1002.41 1002.74 1002.59 1002.57 1003.10 1003.54 1003.88 1004.42 1005.05 1005.52 1005.93 1006.30 1006.65 1006.77 1006.85 1006.91 1007.10 1007.33 1007.52 1007.77 1008.05 1008.28 1008.59 1008.89 1008.79
1002.96 1001.74 1001.26 1001.00 1001.10 1001.39 1001.63 1002.15 1002.57 1002.74 1003.20 1003.27 1002.88 1003.43 1004.08 1004.68 1005.16 1005.45 1005.86 1006.13 1006.41 1006.52 1006.73 1006.94 1007.11 1007.27 1007.52 1007.83 1007.99 1008.13 1008.41 1008.27
Wind_Speed
7 7 11 16 9 10 14 15 13 12 9 6 4 4 5 3 4 6 4 4 5 4 3 4 3 6 2 4 3 2 3 2
11 10 9 12 13 12 11 14 13 11 6 7 7 6 5 5 6 8 5 4 4 4 3 2 3 3 4 3 2 3 3 4
8 11 9 8 13 14 15 13 13 12 9 8 7 9 7 7 8 10 6 5 5 3 3 3 3 2 3 3 3 3 3 4
6 7 7 11 11 14 15 15 13 12 11 12 10 9 9 8 8 10 11 6 4 4 2 3 3 3 3 3 3 3 3 3
10 13 13 13 11 11 16 16 15 15 16 13 11 10 10 10 10 10 9 6 5 5 5 4 5 4 4 3 3 2 2 3
11 9 9 11 10 16 15 14 16 14 15 12 9 8 8 8 8 7 9 8 5 4 3 4 4 4 3 3 3 2 3 3
9 10 11 9 12 13 15 16 18 18 14 10 9 8 7 6 5 6 8 7 8 5 5 4 6 4 5 3 4 3 3 3
13 10 11 9 10 9 13 14 15 14 9 5 4 5 7 8 8 8 12 10 10 7 5 4 4 4 4 4 5 3 4 3
8 8 7 9 8 8 10 13 12 12 10 10 8 10 6 6 5 7 7 6 11 11 7 5 5 6 7 5 4 3 4 3
11 8 7 10 13 14 12 13 12 12 10 10 4 6 4 5 5 5 7 9 9 7 9 8 7 7 8 7 6 3 4 3
9 9 7 6 9 12 14 14 14 12 9 8 4 5 3 2 4 5 8 8 6 7 8 9 8 8 5 9 9 9 5 2
8 8 7 8 10 6 7 7 9 9 10 9 11 6 7 4 5 5 4 6 6 8 8 4 4 3 6 10 6 5 5 5
10 11 10 10 5 8 6 7 7 8 11 11 8 5 4 3 3 6 6 4 5 4 5 7 7 2 6 8 9 5 5 6
10 12 11 8 6 6 6 9 7 8 9 10 11 11 10 8 6 4 3 3 4 7 6 7 7 13 18 14 16 7 6 4
9 10 13 11 10 11 8 8 8 8 8 8 8 8 7 8 7 6 6 4 3 7 5 4 5 8 8 8 6 5 5 4
9 12 10 13 14 14 15 12 9 9 8 8 7 8 5 5 6 5 4 3 3 3 4 4 3 4 5 5 4 3 4 4
7 8 4 5 9 14 17 14 8 9 9 8 8 7 7 6 6 5 4 4 3 5 5 5 4 4 4 4 3 4 3 4
6 7 7 5 6 3 5 4 11 11 10 8 7 8 7 6 6 6 6 5 4 5 5 5 4 4 4 3 3 3 5 5
3 4 3 4 5 7 4 3 2 7 8 7 8 7 6 6 6 6 6 4 5 5 4 4 4 4 4 3 3 3 6 5
8 2 4 6 7 6 2 6 4 2 3 4 9 7 7 7 6 7 6 6 5 5 4 4 3 4 4 4 4 4 6 5
Wind_Direction
184 210 193 187 163 186 178 182 186 182 173 168 176 171 158 169 178 172 168 170 183 185 186 191 174 195 190 214 236 244 242 261
183 195 194 180 174 186 185 179 177 178 175 178 170 177 170 177 185 198 181 184 194 188 188 186 169 175 187 206 206 237 260 270
230 202 183 163 178 183 185 184 182 172 172 179 181 182 178 188 190 204 200 194 200 189 179 166 178 182 203 211 206 227 251 265
219 174 193 189 179 186 180 184 183 180 182 187 188 189 186 189 201 205 202 194 183 162 204 179 206 185 214 216 221 214 242 269
228 197 190 192 198 179 188 182 182 188 196 189 194 190 185 196 203 198 194 198 200 200 184 197 196 182 219 257 249 228 233 264
217 227 213 195 175 186 184 186 193 192 198 193 191 179 194 195 202 186 187 183 194 191 196 212 226 174 172 201 240 241 254 215
242 227 215 205 200 191 184 188 192 196 195 191 188 177 182 181 171 172 171 180 181 195 214 212 210 204 154 199 232 220 234 264
230 224 223 217 205 198 195 189 190 188 184 168 153 170 183 183 191 197 182 183 180 188 203 216 202 216 187 173 219 187 244 238
250 222 206 230 221 196 192 184 185 171 179 179 184 190 187 188 192 186 198 203 191 181 200 182 189 211 222 182 179 193 258 210
271 266 201 192 207 204 197 193 175 184 183 189 169 177 197 191 185 185 194 192 193 195 203 195 176 209 223 178 149 152 243 189
270 273 252 212 204 203 196 184 180 183 170 135 101 103 88 145 204 203 198 182 189 190 203 214 178 204 190 234 180 165 199 121
273 271 259 237 230 189 176 160 165 166 154 152 159 158 156 195 208 221 216 192 194 183 194 196 137 231 221 223 216 175 139 169
263 273 260 223 220 202 193 168 160 159 165 166 155 150 144 137 128 184 196 200 214 224 189 158 183 152 312 298 265 171 190 198
253 247 257 242 189 187 179 174 181 171 165 164 169 168 158 156 167 194 209 186 219 212 200 181 176 181 215 209 231 243 244 282
294 262 227 226 193 188 176 180 179 175 164 159 162 161 155 159 159 175 172 182 202 224 216 200 179 194 185 211 210 218 220 199
297 287 231 215 205 192 181 177 172 169 168 161 161 161 161 167 164 155 167 175 185 185 183 202 203 213 208 199 202 202 206 210
358 332 288 226 212 198 188 168 164 169 171 161 171 156 152 170 167 158 168 183 202 175 180 192 194 208 221 203 198 208 190 225
44 5 352 89 93 77 92 161 172 176 173 169 164 173 177 155 149 178 186 194 206 180 166 173 175 195 208 197 209 212 212 227
79 65 29 49 84 109 90 37 265 193 176 171 172 178 171 160 180 184 190 188 195 209 194 186 188 198 192 186 214 222 233 243
307 11 79 34 45 51 178 178 260 284 336 276 185 169 165 177 198 205 186 205 196 196 187 195 213 214 188 199 220 219 227 249